When you browse on this site, cookies collect data to enhance your experience and personalize the content and advertising you see.
Visit our Privacy Policy to learn more. By continuing to use the site, you agree to this use of cookies and data.
  • In Lithuania
  • List of Countries
  • For 7 days
  • Water Temperature
  • Satellite Maps
  • Weather Map
  • Weather Widgets
  • user-avatar
    Login

    Hourly Weather Trunovskoe

    Today, 11 December, Tuesday

    Time Temperature Precipitation Wind Pressure Humidity
    00:00 +3°C° 0 mm 4 mps 743 mmHg 89%
    01:00 +3°C° 0 mm 4 mps 743 mmHg 90%
    02:00 +3°C° 0 mm 4 mps 743 mmHg 91%
    03:00 +3°C° 0 mm 4 mps 742 mmHg 91%
    04:00 +3°C° 0 mm 4 mps 742 mmHg 91%
    05:00 +3°C° 0 mm 4 mps 742 mmHg 91%
    06:00 +2°C° 0 mm 5 mps 742 mmHg 91%
    07:00 +2°C° 0 mm 5 mps 742 mmHg 91%
    08:00 +2°C° 0 mm 5 mps 741 mmHg 90%
    09:00 +2°C° 0 mm 5 mps 741 mmHg 90%
    10:00 +3°C° 0 mm 6 mps 740 mmHg 87%
    11:00 +4°C° 0 mm 6 mps 740 mmHg 84%
    12:00 +5°C° 0 mm 7 mps 739 mmHg 81%
    13:00 +5°C° 0 mm 7 mps 739 mmHg 81%
    14:00 +5°C° 0 mm 7 mps 738 mmHg 81%
    15:00 +5°C° 0 mm 7 mps 737 mmHg 81%
    16:00 +5°C° 0 mm 6 mps 738 mmHg 83%
    17:00 +6°C° 0 mm 5 mps 738 mmHg 86%
    18:00 +7°C° 0 mm 3 mps 738 mmHg 88%
    19:00 +5°C° 0.3 mm 3 mps 738 mmHg 90%
    20:00 +6°C° 0.3 mm 2 mps 739 mmHg 92%
    21:00 +6°C° 0.3 mm 2 mps 739 mmHg 94%
    22:00 +7°C° 0.5 mm 1 mps 740 mmHg 94%
    23:00 +7°C° 0.5 mm 1 mps 740 mmHg 94%

    Tomorrow, 12 December, Wednesday

    Time Temperature Precipitation Wind Pressure Humidity
    00:00 +7°C° 0.5 mm 1 mps 741 mmHg 94%
    01:00 +7°C° 0 mm 1 mps 741 mmHg 94%
    02:00 +7°C° 0 mm 1 mps 741 mmHg 93%
    03:00 +6°C° 0 mm 1 mps 742 mmHg 93%
    04:00 +6°C° 0 mm 1 mps 742 mmHg 93%
    05:00 +6°C° 0 mm 1 mps 742 mmHg 92%
    06:00 +5°C° 0 mm 2 mps 743 mmHg 92%
    07:00 +5°C° 0 mm 2 mps 743 mmHg 91%
    08:00 +6°C° 0 mm 2 mps 743 mmHg 90%
    09:00 +6°C° 0 mm 2 mps 744 mmHg 89%
    10:00 +7°C° 0.1 mm 2 mps 744 mmHg 83%
    11:00 +8°C° 0.1 mm 2 mps 744 mmHg 78%
    12:00 +9°C° 0.1 mm 3 mps 743 mmHg 72%
    13:00 +9°C° 0.1 mm 2 mps 743 mmHg 72%
    14:00 +9°C° 0.1 mm 2 mps 743 mmHg 72%
    15:00 +10°C° 0.1 mm 1 mps 743 mmHg 73%
    16:00 +9°C° 0.2 mm 1 mps 743 mmHg 76%
    17:00 +9°C° 0.2 mm 1 mps 743 mmHg 79%
    18:00 +8°C° 0.2 mm 1 mps 743 mmHg 83%
    19:00 +7°C° 0.4 mm 2 mps 743 mmHg 85%
    20:00 +7°C° 0.4 mm 2 mps 743 mmHg 87%
    21:00 +7°C° 0.4 mm 2 mps 743 mmHg 89%
    22:00 +6°C° 0.5 mm 2 mps 744 mmHg 89%
    23:00 +6°C° 0.5 mm 2 mps 744 mmHg 90%

    Day after tomorrow, 13 December, Thursday

    Time Temperature Precipitation Wind Pressure Humidity
    00:00 +6°C° 0.5 mm 2 mps 744 mmHg 90%
    01:00 +6°C° 0.8 mm 2 mps 744 mmHg 91%
    02:00 +5°C° 0.8 mm 2 mps 744 mmHg 91%
    03:00 +5°C° 0.8 mm 2 mps 744 mmHg 92%
    04:00 +5°C° 0.9 mm 2 mps 745 mmHg 92%
    05:00 +5°C° 0.9 mm 2 mps 745 mmHg 93%
    06:00 +5°C° 0.9 mm 2 mps 745 mmHg 93%
    07:00 +5°C° 1 mm 2 mps 746 mmHg 93%
    08:00 +4°C° 1 mm 2 mps 746 mmHg 93%
    09:00 +4°C° 1 mm 2 mps 747 mmHg 92%
    10:00 +3°C° 0.7 mm 3 mps 747 mmHg 90%
    11:00 +3°C° 0.7 mm 3 mps 747 mmHg 88%
    12:00 +3°C° 0.7 mm 4 mps 747 mmHg 86%
    13:00 +3°C° 0.2 mm 4 mps 748 mmHg 84%
    14:00 +3°C° 0.2 mm 3 mps 748 mmHg 82%
    15:00 +3°C° 0.2 mm 3 mps 749 mmHg 80%
    16:00 +3°C° 0 mm 2 mps 749 mmHg 82%
    17:00 +3°C° 0 mm 2 mps 750 mmHg 84%
    18:00 +4°C° 0 mm 1 mps 750 mmHg 85%
    19:00 +3°C° 0 mm 1 mps 751 mmHg 86%
    20:00 +3°C° 0 mm 1 mps 751 mmHg 87%
    21:00 +2°C° 0 mm 0 mps 751 mmHg 88%
    22:00 +3°C° 0 mm 1 mps 751 mmHg 88%
    23:00 +2°C° 0 mm 1 mps 751 mmHg 89%

    14 December, Friday

    Time Temperature Precipitation Wind Pressure Humidity
    00:00 +2°C° 0 mm 1 mps 752 mmHg 89%
    01:00 +2°C° 0 mm 1 mps 752 mmHg 88%
    02:00 +2°C° 0 mm 1 mps 752 mmHg 87%
    03:00 +2°C° 0 mm 1 mps 752 mmHg 86%
    04:00 +2°C° 0 mm 1 mps 752 mmHg 84%
    05:00 +2°C° 0 mm 1 mps 752 mmHg 83%
    06:00 +2°C° 0 mm 1 mps 752 mmHg 81%
    07:00 +2°C° 0 mm 1 mps 752 mmHg 79%
    08:00 +2°C° 0 mm 2 mps 752 mmHg 77%
    09:00 +2°C° 0 mm 2 mps 752 mmHg 76%
    10:00 +3°C° 0 mm 2 mps 752 mmHg 71%
    11:00 +4°C° 0 mm 2 mps 751 mmHg 67%
    12:00 +4°C° 0 mm 3 mps 751 mmHg 63%
    13:00 +4°C° 0 mm 3 mps 751 mmHg 64%
    14:00 +4°C° 0 mm 3 mps 751 mmHg 65%
    15:00 +4°C° 0 mm 3 mps 751 mmHg 66%
    16:00 +3°C° 0 mm 3 mps 751 mmHg 70%
    17:00 +2°C° 0 mm 3 mps 751 mmHg 74%
    18:00 +2°C° 0 mm 3 mps 751 mmHg 77%
    19:00 +1°C° 0 mm 3 mps 751 mmHg 78%
    20:00 +1°C° 0 mm 3 mps 752 mmHg 79%
    21:00 +1°C° 0 mm 3 mps 752 mmHg 79%
    22:00 +1°C° 0 mm 3 mps 752 mmHg 80%
    23:00 +1°C° 0 mm 3 mps 752 mmHg 81%

    15 December, Saturday

    Time Temperature Precipitation Wind Pressure Humidity
    00:00 0°C° 0 mm 3 mps 752 mmHg 83%
    01:00 0°C° 0 mm 3 mps 752 mmHg 83%
    02:00 0°C° 0 mm 3 mps 752 mmHg 83%
    03:00 0°C° 0 mm 3 mps 752 mmHg 83%
    04:00 0°C° 0 mm 3 mps 752 mmHg 84%
    05:00 0°C° 0 mm 3 mps 752 mmHg 84%
    06:00 0°C° 0 mm 3 mps 752 mmHg 84%
    07:00 0°C° 0 mm 3 mps 752 mmHg 83%
    08:00 0°C° 0 mm 3 mps 753 mmHg 82%
    09:00 0°C° 0 mm 3 mps 753 mmHg 81%
    10:00 +1°C° 0 mm 3 mps 753 mmHg 78%
    11:00 +3°C° 0 mm 2 mps 753 mmHg 74%
    12:00 +4°C° 0 mm 2 mps 753 mmHg 71%
    13:00 +4°C° 0.1 mm 2 mps 753 mmHg 73%
    14:00 +4°C° 0.1 mm 2 mps 753 mmHg 74%
    15:00 +5°C° 0.1 mm 1 mps 753 mmHg 76%
    16:00 +4°C° 0.1 mm 2 mps 753 mmHg 78%
    17:00 +3°C° 0.1 mm 2 mps 754 mmHg 79%
    18:00 +3°C° 0.1 mm 2 mps 754 mmHg 81%
    19:00 +3°C° 0 mm 2 mps 754 mmHg 82%
    20:00 +2°C° 0 mm 2 mps 754 mmHg 83%
    21:00 +2°C° 0 mm 2 mps 754 mmHg 84%
    22:00 +2°C° 0 mm 2 mps 755 mmHg 86%
    23:00 +2°C° 0 mm 2 mps 755 mmHg 88%

    16 December, Sunday

    Time Temperature Precipitation Wind Pressure Humidity
    00:00 +2°C° 0 mm 2 mps 755 mmHg 90%
    01:00 +2°C° 0.1 mm 2 mps 755 mmHg 91%
    02:00 +2°C° 0.1 mm 2 mps 755 mmHg 93%
    03:00 +2°C° 0.1 mm 2 mps 756 mmHg 95%
    04:00 +1°C° 0 mm 2 mps 756 mmHg 95%
    05:00 +1°C° 0 mm 2 mps 756 mmHg 95%
    06:00 -1°C° 0 mm 2 mps 756 mmHg 95%
    07:00 -1°C° 0 mm 2 mps 757 mmHg 93%
    08:00 -1°C° 0 mm 2 mps 757 mmHg 92%
    09:00 -1°C° 0 mm 2 mps 757 mmHg 90%
    10:00 +1°C° 0 mm 2 mps 757 mmHg 86%
    11:00 +1°C° 0 mm 2 mps 757 mmHg 83%
    12:00 +1°C° 0 mm 3 mps 757 mmHg 79%
    13:00 +2°C° 0 mm 2 mps 757 mmHg 79%
    14:00 +2°C° 0 mm 2 mps 757 mmHg 80%
    15:00 +2°C° 0 mm 2 mps 757 mmHg 80%
    16:00 +1°C° 0 mm 2 mps 757 mmHg 83%
    17:00 -1°C° 0 mm 2 mps 758 mmHg 86%
    18:00 -1°C° 0 mm 2 mps 758 mmHg 88%
    19:00 -1°C° 0 mm 2 mps 758 mmHg 89%
    20:00 -2°C° 0 mm 2 mps 758 mmHg 89%
    21:00 -2°C° 0 mm 2 mps 758 mmHg 90%
    22:00 -2°C° 0 mm 2 mps 758 mmHg 89%
    23:00 -2°C° 0 mm 2 mps 757 mmHg 88%
    Show more